Regional Weather Roundup
Issued by NWS

Home | Current Version | Previous Version | Text Only | Print | Product List | Glossary On
Versions: 1 2 3 4 5 6 7 8 9 10 11 12 13 14 15 16 17 18 19 20 21 22 23 24 25 26 27 28 29 30 31 32 33 34 35 36 37 38 39 40 41 42 43 44 45 46 47 48 49 50
000
ASUS44 KBMX 291310
RWRAL

ALABAMA REGIONAL WEATHER ROUNDUP
NATIONAL WEATHER SERVICE BIRMINGHAM AL
700 AM CST THU JAN 29 2015

NOTE: "FAIR" INDICATES FEW OR NO CLOUDS BELOW 12,000 FEET
WITH NO SIGNIFICANT WEATHER AND/OR OBSTRUCTIONS TO VISIBILITY.

THE REMARK "TC" DENOTES TEMPERATURE IN DEGREES CELSIUS.

ALZ001>011-014-016>018-020-291400-
NORTH ALABAMA

CITY           SKY/WX    TMP DP  RH WIND       PRES   REMARKS
MUSCLE SHOALS  CLOUDY    50  33  52 S14       30.14S
HUNTSVILLE     CLOUDY    48  32  53 S8        30.19R
DECATUR        CLOUDY    45  33  63 S10       30.19R
HALEYVILLE       N/A     41  31  68 CALM      30.22R
GADSDEN        MOCLDY    30  25  80 CALM      30.26S
$$

ALZ012-013-022-023-030>036-040>044-291400-
WEST CENTRAL ALABAMA

CITY           SKY/WX    TMP DP  RH WIND       PRES   REMARKS
TUSCALOOSA     MOCLDY    43  36  76 S7        30.25R
$$

ALZ015-024>027-033>036-040>044-291400-
CENTRAL ALABAMA

CITY           SKY/WX    TMP DP  RH WIND       PRES   REMARKS
BIRMINGHAM     MOCLDY    45  31  58 S9        30.26S
MONTGOMERY     PTCLDY    40  32  73 SE7       30.29R
SHELBY CO ARPT PTCLDY    40  32  73 SE5       30.27S
MAXWELL AFB    PTCLDY    35  34  96 NW2       30.29R
GREENVILLE     FAIR      37  31  78 S3        30.27S
$$

ALZ019-021-028-029-037-038-045>048-291400-
EAST CENTRAL ALABAMA

CITY           SKY/WX    TMP DP  RH WIND       PRES   REMARKS
ANNISTON       MOCLDY    32  28  85 CALM      30.28S
ALEXANDER CITY PTCLDY    37  31  81 CALM      30.30R
AUBURN         PTCLDY    37  27  65 S8        30.31S WCI  31
$$

ALZ051>064-291400-
SOUTHWEST ALABAMA

CITY           SKY/WX    TMP DP  RH WIND       PRES   REMARKS
MOBILE         PTCLDY    42  41  96 SE7       30.27S
BROOKLEY FIELD CLEAR     43  41  93 SE7       30.29R
EVERGREEN      CLEAR     32  31  96 CALM      30.29S FOG
$$

ALZ049-050-065>069-291400-
SOUTHEAST ALABAMA

CITY           SKY/WX    TMP DP  RH WIND       PRES   REMARKS
DOTHAN         CLEAR     37  32  82 SE5       30.35R WCI  33
OZARK          CLEAR     38  31  75 E5        30.32R WCI  34
TROY           CLEAR     38  31  76 CALM      30.30S
EUFAULA        FAIR      33  31  92 S3        30.31S
$$



USA.gov is the U.S. government's official web portal to all federal, state and local government web resources and services.